TimePDT,TemperatureF,Dew PointF,Humidity,Sea Level PressureIn,VisibilityMPH,Wind Direction,Wind SpeedMPH,Gust SpeedMPH,PrecipitationIn,Events,Conditions,WindDirDegrees,DateUTC
12:54 AM,55.9,52.0,87,29.89,10.0,WNW,5.8,-,N/A,,Clear,290,2013-08-22 07:54:00
1:54 AM,55.9,52.0,87,29.89,10.0,WNW,4.6,-,N/A,,Clear,300,2013-08-22 08:54:00
2:54 AM,55.0,52.0,89,29.89,10.0,West,8.1,-,N/A,,Clear,270,2013-08-22 09:54:00
3:54 AM,57.0,54.0,89,29.89,10.0,West,12.7,-,N/A,,Clear,270,2013-08-22 10:54:00
4:49 AM,55.4,53.6,94,29.91,10.0,West,11.5,-,N/A,,Partly Cloudy,270,2013-08-22 11:49:00
4:54 AM,55.9,53.1,90,29.89,10.0,West,11.5,-,N/A,,Clear,270,2013-08-22 11:54:00
5:01 AM,55.4,53.6,94,29.91,10.0,West,15.0,-,N/A,,Partly Cloudy,270,2013-08-22 12:01:00
5:54 AM,55.9,53.1,90,29.89,10.0,West,12.7,-,N/A,,Scattered Clouds,260,2013-08-22 12:54:00
6:01 AM,55.4,53.6,94,29.92,10.0,West,12.7,-,N/A,,Mostly Cloudy,270,2013-08-22 13:01:00
6:44 AM,55.4,53.6,94,29.93,10.0,West,11.5,-,N/A,,Overcast,270,2013-08-22 13:44:00
6:54 AM,57.0,53.1,87,29.91,10.0,West,9.2,-,N/A,,Overcast,270,2013-08-22 13:54:00
7:32 AM,57.2,53.6,88,29.95,10.0,West,10.4,-,N/A,,Overcast,270,2013-08-22 14:32:00
7:54 AM,57.0,53.1,87,29.93,10.0,WNW,11.5,-,N/A,,Overcast,290,2013-08-22 14:54:00
8:54 AM,57.9,53.1,84,29.94,10.0,West,12.7,-,N/A,,Overcast,270,2013-08-22 15:54:00
9:54 AM,59.0,53.1,81,29.95,10.0,West,11.5,-,N/A,,Overcast,270,2013-08-22 16:54:00
10:54 AM,62.1,53.1,72,29.95,10.0,West,11.5,-,N/A,,Overcast,260,2013-08-22 17:54:00
11:32 AM,66.2,53.6,64,29.97,10.0,West,12.7,18.4,N/A,,Scattered Clouds,270,2013-08-22 18:32:00
11:54 AM,68.0,53.1,59,29.94,10.0,West,13.8,-,N/A,,Clear,280,2013-08-22 18:54:00
12:54 PM,72.0,53.1,51,29.92,10.0,West,13.8,20.7,N/A,,Clear,280,2013-08-22 19:54:00
1:54 PM,73.0,55.0,53,29.90,10.0,SW,11.5,-,N/A,,Clear,220,2013-08-22 20:54:00
2:54 PM,75.9,55.0,48,29.88,10.0,SW,10.4,20.7,N/A,,Clear,220,2013-08-22 21:54:00
3:54 PM,77.0,50.0,39,29.87,10.0,West,17.3,-,N/A,,Clear,260,2013-08-22 22:54:00
4:54 PM,75.0,51.1,43,29.86,10.0,West,19.6,25.3,N/A,,Clear,260,2013-08-22 23:54:00
5:54 PM,72.0,52.0,49,29.86,10.0,WSW,16.1,-,N/A,,Clear,250,2013-08-23 00:54:00
6:54 PM,66.0,52.0,60,29.85,10.0,WSW,19.6,-,N/A,,Clear,250,2013-08-23 01:54:00
7:54 PM,61.0,52.0,72,29.85,10.0,West,18.4,-,N/A,,Clear,260,2013-08-23 02:54:00
8:54 PM,59.0,52.0,78,29.88,10.0,WSW,12.7,18.4,N/A,,Clear,250,2013-08-23 03:54:00
9:54 PM,57.9,52.0,81,29.89,10.0,WSW,9.2,-,N/A,,Clear,250,2013-08-23 04:54:00
10:54 PM,57.9,52.0,81,29.89,10.0,WSW,9.2,-,N/A,,Clear,250,2013-08-23 05:54:00
11:54 PM,57.9,53.1,84,29.89,10.0,West,13.8,-,N/A,,Clear,260,2013-08-23 06:54:00